Simultaneous Nadir Overpasses (SNOs) Predictions

Prediction of SNOs between AQUA and METOP-A Satellite Orbit:

Table of predicted SNOs for the next 14.0 days since TLE Epoch: 5/29/2021
Index Date (AQUA) Time (AQUA) Lat,Lon (AQUA) SZA (AQUA ) Date (METOP-A) Time (METOP-A) Lat,Lon (METOP-A) SZA (METOP-A ) Distance(km) Time Diff (sec)
1 05/30/2021 18:37:15 -77.33, 64.89 124.14 05/30/2021 18:36:02 -77.26, 64.20 124.13 18.32 73
2 05/30/2021 19:26:44 77.43,-127.87 55.99 05/30/2021 19:26:38 77.43,-127.75 55.98 2.96 6
3 05/30/2021 20:16:11 -77.46, 39.64 123.98 05/30/2021 20:17:19 -77.46, 39.71 124.00 1.62 68
4 06/02/2021 14:11:32 -77.39, 131.09 124.43 06/02/2021 14:10:21 -77.39, 131.09 124.41 0.62 71
5 06/02/2021 15:01:00 77.45, -61.51 55.64 06/02/2021 15:01:00 77.43, -61.43 55.62 2.82 0
6 06/02/2021 15:50:27 -77.47, 106.02 124.34 06/02/2021 15:51:40 -77.50, 106.23 124.34 6.06 73
7 06/05/2021 09:45:47 -77.41,-162.56 124.73 06/05/2021 09:44:42 -77.39,-162.59 124.72 2.17 65
8 06/05/2021 10:35:14 77.42, 5.02 55.29 06/05/2021 10:35:21 77.42, 4.89 55.30 3.12 7
9 06/05/2021 11:24:47 -77.72, 171.42 124.35 06/05/2021 11:25:55 -77.76, 173.70 124.48 54.09 68
10 06/08/2021 05:20:03 -77.43, -96.23 124.96 06/08/2021 05:19:03 -77.43, -96.09 124.96 3.60 60
11 06/08/2021 06:09:30 77.45, 71.33 55.07 06/08/2021 06:09:42 77.46, 71.38 55.07 1.37 12
12 06/11/2021 00:54:18 -77.42, -29.75 125.18 06/11/2021 00:53:25 -77.42, -29.78 125.17 0.89 53
13 06/11/2021 01:43:45 77.44, 137.81 54.84 06/11/2021 01:44:04 77.45, 137.68 54.85 3.20 19



Historial Predications of SNOs between AQUA and METOP-A
